Location: Newark
(43.0000°N, 1.6781°W)
Time: 15:38:07
(UTC+00:00)

PCSat - Pass Details

Date: 01 December 2022
Orbit: 785 x 793 km, 67.1° (Epoch: 05 February)

Event Time Altitude Azimuth Distance (km) Brightness Sun altitude
Exits shadow 03:07:22 11° 66° (ENE) 2,293 12.5 -45.1°
Drops below altitude 10° 03:07:45 10° 69° (ENE) 2,363 12.6 -45.0°
Sets 03:11:20 0° 94° (E) 3,289 13.5 -44.4°
